SCP
0 0 0 0 0 0 0 0 0 0 0 0 0 0 0 0 0 0 0 0 0 0 0 0 0 0 0 0 0 0 0 0 0 0 0 0 0 0 0 0 0 0 0
0 0 0 0 0 0 0 0 0 0 0 0 0 0 0 0 0 0 0 0 0 0 0 0 0 0 0 0 0 0 0 0 0 0 0 0 0 0 0 0 0 0 0
0 0 0 0 0 0 0 0 0 0 0 0 0 0 0 0 0 0 0 0 0 0 0 0 0 0 0 0 0 0 0 0 0 0 0 0 0 0 0 0 0 0 0
0 0 0 0 0 0 0 0 0 0 0 0 0 0 0 0 0 0 0 0 0 0 0 0 0 0 0 0 0 0 0 0 0 0 0 0 0 0 0 0 0 0 0
0 0 0 0 0 0 0 0 0 0 0 0 0 0 0 0 0 0 0 0 -0 0 0 -0 0 0 0 0 0 0 0 0 0 0 0 0 0 0 0 0 0 0 0
0 0 0 0 0 0 0 0 0 0 0 0 0 0 0 0 0 0 0 0 0 0 0 -0 0 -0 -0 -0 0 0 0 0 0 0 0 0 0 0 0 0 0 0 0
0 0 0 0 0 0 0 0 0 0 0 0 0 0 0 0 0 0 0 0 0 0 0 0 -0 -0 -0 -0 -0 0 0 0 0 0 0 0 0 0 0 0 0 0 0
0 0 0 0 0 0 0 0 0 0 0 0 0 0 0 0 0 0 0 0 0 0 0 0 0 0 0 0 0 0 0 0 0 0 0 0 0 0 0 0 0 0 0
0 0 0 0 0 0 0 0 0 0 0 0 0 0 0 0 0 0 0 0 0 0 0 0 0 0 0 0 0 0 0 0 0 0 0 0 0 0 0 0 0 0 0
0 0 0 0 0 0 0 0 0 0 0 0 0 0 0 0 0 0 0 0 0 0 0 0 0 0 0 0 0 0 0 0 0 0 0 0 0 0 0 0 0 0 0
0 0 0 0 0 0 0 0 0 0 0 0 0 0 0 0 0 0 0 0 0 0 0 0 0 0 0 0 0 0 0 0 0 0 0 0 0 0 0 0 0 0 0
0 0 0 0 0 0 0 0 0 0 0 0 0 0 0 0 0 0 0 0 0 0 0 0 0 0 0 0 0 0 0 0 0 0 0 0 0 0 0 0 0 0 0
0 0 0 0 0 0 0 0 0 0 0 0 0 0 0 0 0 0 0 0 0 0 0 0 0 0 0 0 0 0 0 0 0 0 0 0 0 0 0 0 0 0 0
0 0 0 0 0 0 0 0 0 0 0 0 0 0 0 0 0 0 0 0 0 0 0 0 0 0 0 0 0 0 0 0 0 0 0 0 0 0 0 0 0 0 0
0 0 0 0 0 0 0 0 0 0 0 0 0 0 0 0 0 0 0 0 0 0 0 0 0 0 0 0 0 0 0 0 0 0 0 0 0 0 0 0 0 0 0
0 0 0 0 0 0 0 0 0 0 0 0 0 0 0 0 0 0 0 0 0 0 0 0 0 0 0 0 0 0 0 0 0 0 0 0 0 0 0 0 0 0 0
0 0 0 0 0 0 0 0 0 0 0 0 0 0 0 0 0 0 0 0 0 0 0 0 0 0 0 0 0 0 0 0 0 0 0 0 0 0 0 0 0 0 0
0 0 0 0 0 0 0 0 0 0 0 0 0 0 0 0 0 0 0 0 0 0 0 0 0 0 0 0 0 0 0 0 0 0 0 0 0 0 0 0 0 0 0
0 0 0 0 0 0 0 0 0 0 0 0 0 0 0 0 0 0 0 0 0 0 0 0 0 0 0 0 0 0 0 0 0 0 0 0 0 0 0 0 0 0 0
0 0 0 0 0 0 0 0 0 0 0 0 0 0 0 0 0 0 0 0 0 0 0 0 0 0 0 0 0 0 0 0 0 0 0 0 0 0 0 0 0 0 0
0 0 0 0 0 0 0 0 0 0 0 0 0 0 0 0 0 0 0 0 0 0 0 0 0 0 0 0 0 0 0 0 0 0 0 0 0 0 0 0 0 0 0
0 0 0 0 0 0 0 0 0 0 0 0 0 0 0 0 0 0 0 0 0 0 0 0 0 0 0 0 0 0 0 0 0 0 0 0 0 0 0 0 0 0 0
0 0 0 0 0 0 0 0 0 0 0 0 0 0 0 0 0 0 0 0 0 0 0 0 0 0 0 0 0 0 0 0 0 0 0 0 0 0 0 0 0 0 0
0 0 0 0 0 0 0 0 0 0 0 0 0 0 0 0 0 0 0 0 0 0 0 0 0 0 0 0 0 0 0 0 0 0 0 0 0 0 0 0 0 0 0
0 0 0 0 0 0 0 0 0 0 0 0 0 0 0 0 0 0 0 0 0 0 0 0 0 0 0 0 0 0 0 0 0 0 0 0 0 0 0 0 0 0 0
0 0 0 0 0 0 0 0 0 0 0 0 0 0 0 0 0 0 0 0 0 0 0 0 0 0 0 0 0 0 0 0 0 0 0 0 0 0 0 0 0 0 0
Wind_Speed_500mb
18 26 28 30 30 31 28 26 23 21 20 20 19 20 23 25 26 26 25 24 24 25 26 27 27 28 28 27 25 21 15 10 4 1 1 3 7 1 1 1 2 2 4
22 26 29 28 29 26 25 22 19 16 15 14 15 15 18 19 21 22 21 19 19 21 23 25 25 25 25 24 23 22 19 14 7 3 4 4 3 5 3 6 7 5 4
21 25 28 29 27 25 22 20 18 14 11 10 9 11 14 17 20 23 21 17 14 15 18 23 25 25 26 28 27 23 20 17 11 6 3 6 9 9 8 10 7 12 12
20 24 26 29 27 24 21 16 13 12 10 6 1 5 10 14 16 21 19 17 18 14 13 21 24 24 29 32 31 29 25 22 19 15 9 8 10 13 15 15 15 13 14
24 26 27 31 29 24 21 17 12 9 7 6 4 4 9 12 15 15 16 18 17 11 17 25 26 28 31 34 35 35 32 29 25 22 19 16 15 17 16 19 21 21 20
30 30 29 30 28 25 22 18 15 13 10 7 5 4 6 10 17 17 16 14 14 15 20 25 30 35 39 40 42 36 39 38 32 28 25 25 23 22 23 22 23 24 24
33 33 30 29 27 27 24 21 18 14 11 11 12 13 14 7 10 18 17 14 12 15 20 23 24 28 36 40 45 42 41 41 40 34 29 29 29 29 28 29 29 26 27
34 36 35 32 30 29 27 23 19 17 15 16 17 20 11 21 14 12 18 20 17 17 19 20 24 28 25 26 33 42 47 45 43 44 39 34 30 32 32 34 34 34 31
35 38 36 33 27 26 23 22 22 21 19 19 19 18 9 8 15 15 18 22 30 24 25 33 39 30 24 28 26 29 38 46 48 47 41 38 40 35 35 35 34 36 38
34 37 36 31 29 26 24 23 24 24 25 24 23 23 25 28 22 19 32 36 37 41 46 38 36 30 30 34 36 36 38 39 47 54 51 44 32 34 37 38 35 32 34
34 35 37 35 32 30 28 29 28 27 28 30 32 32 33 34 36 41 42 39 43 42 42 48 47 51 55 56 55 52 44 40 41 47 41 37 33 31 32 33 34 33 31
37 36 35 34 33 32 32 30 32 34 34 35 38 41 42 41 40 39 42 45 48 51 52 52 55 56 53 50 45 39 39 41 45 52 45 38 35 32 33 33 32 34 33
42 39 36 35 34 33 34 33 36 36 38 39 38 35 35 37 41 44 47 51 56 56 54 51 48 46 45 43 42 40 42 42 36 40 42 40 35 36 34 29 31 33 35
39 40 39 35 35 33 39 35 37 36 35 35 34 34 35 36 38 41 43 46 54 57 57 58 56 52 49 47 45 44 42 45 52 43 34 35 39 37 36 36 36 38 38
36 36 35 34 36 35 33 32 34 35 34 33 32 33 34 34 36 38 40 42 46 56 63 58 55 55 54 51 49 48 47 45 42 40 45 44 40 43 44 46 46 46 46
41 39 35 34 30 31 30 32 32 33 33 33 33 33 34 36 37 39 44 47 50 53 65 59 60 60 57 56 54 48 48 46 43 43 43 43 49 47 48 50 53 53 48
37 35 30 28 27 29 32 33 32 32 32 33 34 37 39 42 45 46 49 51 52 52 62 69 63 58 59 58 57 53 54 50 50 46 53 54 55 54 52 50 47 45 49
26 24 25 26 28 28 28 30 29 29 32 36 38 41 42 44 47 48 50 51 53 53 59 66 63 62 63 64 62 62 58 53 52 54 51 47 41 41 45 49 50 52 49
19 21 23 24 25 27 27 27 30 34 37 36 39 40 42 46 51 54 57 62 64 62 60 64 65 63 63 65 70 71 71 68 75 68 57 54 53 54 58 54 54 53 59
19 20 22 24 26 26 26 30 37 35 39 45 42 44 51 57 55 50 52 52 45 50 53 61 67 72 70 66 62 55 54 52 53 47 48 48 51 50 50 50 46 50 49
20 22 24 26 30 33 33 33 36 41 46 46 48 45 45 49 48 47 52 52 53 53 57 56 59 51 55 52 41 40 44 42 42 43 37 40 42 46 45 41 46 49 49
22 24 25 26 27 31 34 36 39 44 42 45 46 46 50 58 65 51 42 42 45 51 56 54 44 54 57 45 43 49 49 50 60 52 41 37 31 36 33 37 37 37 39
24 26 28 30 32 37 42 45 38 38 42 44 47 55 57 56 53 55 48 46 41 40 44 49 56 57 51 50 49 49 51 54 60 59 51 56 46 42 37 37 37 37 39
29 30 33 36 39 40 41 39 32 37 43 47 49 50 53 61 55 49 46 41 41 45 48 49 46 47 48 48 46 47 47 52 58 46 49 59 54 56 40 40 34 40 46
34 33 34 33 36 39 38 37 33 41 47 49 51 54 43 53 49 41 40 51 51 54 51 47 45 47 47 46 45 43 42 45 47 53 49 48 50 50 42 46 44 44 49
37 39 39 40 41 41 43 47 46 42 47 54 58 50 47 45 44 39 41 48 56 57 43 34 39 39 44 38 36 48 54 56 58 55 44 42 46 38 41 54 53 43 42
Wind_Direction_500mb
162 157 151 145 140 137 134 129 122 113 104 93 82 74 69 63 56 53 56 61 63 61 59 55 51 50 48 49 51 53 55 61 52 58 273 126 84 281 223 326 14 88 140
171 166 163 153 147 144 141 137 131 119 106 85 69 56 59 54 47 45 41 43 49 49 47 45 40 34 29 26 23 24 30 35 35 19 277 258 278 210 195 243 253 268 227
176 171 171 165 161 158 157 150 142 133 119 98 60 39 29 29 34 32 36 36 42 33 32 34 27 24 21 13 7 6 2 359 359 1 291 267 254 261 250 231 235 237 244
192 178 179 176 177 174 175 169 164 157 156 142 53 10 3 360 2 6 24 26 14 15 25 16 14 14 10 7 359 356 350 341 332 325 310 283 262 252 247 251 239 234 245
202 197 186 186 185 185 190 189 194 193 181 177 228 297 321 322 320 332 351 359 356 4 350 351 354 352 351 354 349 346 343 338 326 317 305 287 273 263 256 247 247 242 238
203 204 195 192 195 198 206 206 212 213 222 236 272 265 309 287 292 299 315 326 342 332 334 339 341 336 338 336 339 336 338 332 326 319 304 292 278 266 261 254 249 246 242
208 208 205 204 206 208 213 221 226 228 245 277 292 295 310 320 302 292 264 267 292 310 316 320 324 326 326 327 326 324 327 326 324 324 317 294 284 277 263 256 254 249 244
209 214 216 214 209 213 217 224 233 240 253 270 284 301 307 302 316 264 231 242 273 287 281 284 301 308 305 306 309 310 314 315 319 322 317 305 296 282 274 265 255 251 249
212 213 213 214 215 216 226 236 244 252 256 264 274 277 287 269 283 257 240 252 276 272 278 286 300 294 277 283 291 298 304 303 306 309 310 309 302 291 281 274 267 256 250
210 212 215 217 221 224 230 240 245 250 257 267 270 271 275 272 272 268 275 279 279 278 288 290 293 280 286 292 294 288 286 294 297 300 300 303 304 300 286 276 278 276 264
204 210 215 218 222 228 232 238 248 261 271 277 281 283 281 277 273 270 280 275 272 276 279 285 284 281 284 287 287 285 282 279 285 290 293 295 295 297 299 292 283 283 284
207 207 209 217 225 234 238 249 259 265 271 275 276 277 276 277 279 278 279 282 285 286 285 286 287 287 289 292 294 291 285 278 274 273 281 284 285 289 294 294 291 288 283
210 211 216 225 230 236 244 252 257 261 267 270 269 265 267 270 273 276 281 287 293 296 298 295 293 293 297 298 297 291 283 277 274 270 268 272 274 285 286 291 293 292 287
214 217 221 228 234 242 250 256 260 263 265 265 270 274 275 274 274 277 282 289 294 296 297 298 300 301 302 302 299 297 290 282 276 272 254 265 277 277 280 283 287 292 288
211 217 226 237 242 250 252 256 258 261 267 274 278 279 279 278 279 283 287 291 294 297 298 300 302 305 305 304 303 301 297 291 288 279 266 257 268 270 272 277 282 284 283
211 216 227 234 244 251 259 265 272 278 281 284 286 287 287 286 286 288 289 289 289 290 291 292 297 300 301 300 301 298 297 295 286 282 279 279 270 269 271 274 277 278 276
208 220 231 249 256 262 267 274 280 282 283 284 286 286 286 287 288 287 286 285 284 285 287 292 294 297 296 297 298 295 291 287 286 280 278 283 274 266 270 272 271 270 268
216 232 240 250 259 269 279 283 281 284 288 289 287 287 288 289 288 289 289 288 287 285 285 290 294 294 293 294 293 295 296 291 292 286 285 284 273 267 266 269 267 262 263
240 252 264 275 281 286 287 287 292 296 296 297 299 297 296 294 292 290 289 287 287 288 286 287 290 289 288 289 294 293 289 286 285 287 282 276 268 266 270 263 260 265 263
268 279 283 283 286 286 284 286 292 295 301 303 298 295 295 293 294 296 296 294 291 287 286 287 287 289 291 292 291 295 293 288 283 279 273 273 270 267 268 264 261 259 261
278 277 276 276 276 278 283 287 292 295 295 291 291 298 296 297 299 296 294 289 287 286 284 290 292 292 289 288 293 297 300 296 291 286 285 273 271 265 262 265 255 257 259
281 283 285 285 283 281 281 282 284 288 286 285 287 290 288 292 296 300 295 286 280 283 287 288 288 289 292 291 287 293 288 290 288 292 292 284 278 267 265 255 251 258 262
298 297 294 289 283 284 286 288 289 286 282 281 284 285 293 298 302 298 291 289 283 277 275 279 281 282 280 285 292 286 282 284 287 285 288 286 279 270 270 259 258 260 255
300 299 296 293 292 292 291 291 294 284 281 283 287 289 291 298 297 296 292 293 291 288 286 287 285 282 280 279 281 283 280 291 286 292 271 275 281 275 265 260 266 270 254
306 304 306 303 297 297 299 297 295 288 290 291 295 300 296 294 291 292 288 291 295 294 294 287 279 278 279 276 276 285 283 287 284 271 283 274 268 269 271 272 271 273 270
311 309 306 303 301 301 299 296 294 293 291 293 298 296 294 287 291 291 290 290 287 287 288 299 297 291 271 275 271 279 280 276 275 275 270 253 251 266 278 276 281 286 276
Wind_Speed_850mb
18 26 28 30 30 31 28 26 23 21 20 20 19 20 23 25 26 26 25 24 24 25 26 27 27 28 28 27 25 21 15 10 4 1 1 3 7 1 1 1 2 2 4
22 26 29 28 29 26 25 22 19 16 15 14 15 15 18 19 21 22 21 19 19 21 23 25 25 25 25 24 23 22 19 14 7 3 4 4 3 5 3 6 7 5 4
21 25 28 29 27 25 22 20 18 14 11 10 9 11 14 17 20 23 21 17 14 15 18 23 25 25 26 28 27 23 20 17 11 6 3 6 9 9 8 10 7 12 12
20 24 26 29 27 24 21 16 13 12 10 6 1 5 10 14 16 21 19 17 18 14 13 21 24 24 29 32 31 29 25 22 19 15 9 8 10 13 15 15 15 13 14
24 26 27 31 29 24 21 17 12 9 7 6 4 4 9 12 15 15 16 18 17 11 17 25 26 28 31 34 35 35 32 29 25 22 19 16 15 17 16 19 21 21 20
30 30 29 30 28 25 22 18 15 13 10 7 5 4 6 10 17 17 16 14 14 15 20 25 30 35 39 40 42 36 39 38 32 28 25 25 23 22 23 22 23 24 24
33 33 30 29 27 27 24 21 18 14 11 11 12 13 14 7 10 18 17 14 12 15 20 23 24 28 36 40 45 42 41 41 40 34 29 29 29 29 28 29 29 26 27
34 36 35 32 30 29 27 23 19 17 15 16 17 20 11 21 14 12 18 20 17 17 19 20 24 28 25 26 33 42 47 45 43 44 39 34 30 32 32 34 34 34 31
35 38 36 33 27 26 23 22 22 21 19 19 19 18 9 8 15 15 18 22 30 24 25 33 39 30 24 28 26 29 38 46 48 47 41 38 40 35 35 35 34 36 38
34 37 36 31 29 26 24 23 24 24 25 24 23 23 25 28 22 19 32 36 37 41 46 38 36 30 30 34 36 36 38 39 47 54 51 44 32 34 37 38 35 32 34
34 35 37 35 32 30 28 29 28 27 28 30 32 32 33 34 36 41 42 39 43 42 42 48 47 51 55 56 55 52 44 40 41 47 41 37 33 31 32 33 34 33 31
37 36 35 34 33 32 32 30 32 34 34 35 38 41 42 41 40 39 42 45 48 51 52 52 55 56 53 50 45 39 39 41 45 52 45 38 35 32 33 33 32 34 33
42 39 36 35 34 33 34 33 36 36 38 39 38 35 35 37 41 44 47 51 56 56 54 51 48 46 45 43 42 40 42 42 36 40 42 40 35 36 34 29 31 33 35
39 40 39 35 35 33 39 35 37 36 35 35 34 34 35 36 38 41 43 46 54 57 57 58 56 52 49 47 45 44 42 45 52 43 34 35 39 37 36 36 36 38 38
36 36 35 34 36 35 33 32 34 35 34 33 32 33 34 34 36 38 40 42 46 56 63 58 55 55 54 51 49 48 47 45 42 40 45 44 40 43 44 46 46 46 46
41 39 35 34 30 31 30 32 32 33 33 33 33 33 34 36 37 39 44 47 50 53 65 59 60 60 57 56 54 48 48 46 43 43 43 43 49 47 48 50 53 53 48
37 35 30 28 27 29 32 33 32 32 32 33 34 37 39 42 45 46 49 51 52 52 62 69 63 58 59 58 57 53 54 50 50 46 53 54 55 54 52 50 47 45 49
26 24 25 26 28 28 28 30 29 29 32 36 38 41 42 44 47 48 50 51 53 53 59 66 63 62 63 64 62 62 58 53 52 54 51 47 41 41 45 49 50 52 49
19 21 23 24 25 27 27 27 30 34 37 36 39 40 42 46 51 54 57 62 64 62 60 64 65 63 63 65 70 71 71 68 75 68 57 54 53 54 58 54 54 53 59
19 20 22 24 26 26 26 30 37 35 39 45 42 44 51 57 55 50 52 52 45 50 53 61 67 72 70 66 62 55 54 52 53 47 48 48 51 50 50 50 46 50 49
20 22 24 26 30 33 33 33 36 41 46 46 48 45 45 49 48 47 52 52 53 53 57 56 59 51 55 52 41 40 44 42 42 43 37 40 42 46 45 41 46 49 49
22 24 25 26 27 31 34 36 39 44 42 45 46 46 50 58 65 51 42 42 45 51 56 54 44 54 57 45 43 49 49 50 60 52 41 37 31 36 33 37 37 37 39
24 26 28 30 32 37 42 45 38 38 42 44 47 55 57 56 53 55 48 46 41 40 44 49 56 57 51 50 49 49 51 54 60 59 51 56 46 42 37 37 37 37 39
29 30 33 36 39 40 41 39 32 37 43 47 49 50 53 61 55 49 46 41 41 45 48 49 46 47 48 48 46 47 47 52 58 46 49 59 54 56 40 40 34 40 46
34 33 34 33 36 39 38 37 33 41 47 49 51 54 43 53 49 41 40 51 51 54 51 47 45 47 47 46 45 43 42 45 47 53 49 48 50 50 42 46 44 44 49
37 39 39 40 41 41 43 47 46 42 47 54 58 50 47 45 44 39 41 48 56 57 43 34 39 39 44 38 36 48 54 56 58 55 44 42 46 38 41 54 53 43 42
Wind_Direction_850mb
162 157 151 145 140 137 134 129 122 113 104 93 82 74 69 63 56 53 56 61 63 61 59 55 51 50 48 49 51 53 55 61 52 58 273 126 84 281 223 326 14 88 140
171 166 163 153 147 144 141 137 131 119 106 85 69 56 59 54 47 45 41 43 49 49 47 45 40 34 29 26 23 24 30 35 35 19 277 258 278 210 195 243 253 268 227
176 171 171 165 161 158 157 150 142 133 119 98 60 39 29 29 34 32 36 36 42 33 32 34 27 24 21 13 7 6 2 359 359 1 291 267 254 261 250 231 235 237 244
192 178 179 176 177 174 175 169 164 157 156 142 53 10 3 360 2 6 24 26 14 15 25 16 14 14 10 7 359 356 350 341 332 325 310 283 262 252 247 251 239 234 245
202 197 186 186 185 185 190 189 194 193 181 177 228 297 321 322 320 332 351 359 356 4 350 351 354 352 351 354 349 346 343 338 326 317 305 287 273 263 256 247 247 242 238
203 204 195 192 195 198 206 206 212 213 222 236 272 265 309 287 292 299 315 326 342 332 334 339 341 336 338 336 339 336 338 332 326 319 304 292 278 266 261 254 249 246 242
208 208 205 204 206 208 213 221 226 228 245 277 292 295 310 320 302 292 264 267 292 310 316 320 324 326 326 327 326 324 327 326 324 324 317 294 284 277 263 256 254 249 244
209 214 216 214 209 213 217 224 233 240 253 270 284 301 307 302 316 264 231 242 273 287 281 284 301 308 305 306 309 310 314 315 319 322 317 305 296 282 274 265 255 251 249
212 213 213 214 215 216 226 236 244 252 256 264 274 277 287 269 283 257 240 252 276 272 278 286 300 294 277 283 291 298 304 303 306 309 310 309 302 291 281 274 267 256 250
210 212 215 217 221 224 230 240 245 250 257 267 270 271 275 272 272 268 275 279 279 278 288 290 293 280 286 292 294 288 286 294 297 300 300 303 304 300 286 276 278 276 264
204 210 215 218 222 228 232 238 248 261 271 277 281 283 281 277 273 270 280 275 272 276 279 285 284 281 284 287 287 285 282 279 285 290 293 295 295 297 299 292 283 283 284
207 207 209 217 225 234 238 249 259 265 271 275 276 277 276 277 279 278 279 282 285 286 285 286 287 287 289 292 294 291 285 278 274 273 281 284 285 289 294 294 291 288 283
210 211 216 225 230 236 244 252 257 261 267 270 269 265 267 270 273 276 281 287 293 296 298 295 293 293 297 298 297 291 283 277 274 270 268 272 274 285 286 291 293 292 287
214 217 221 228 234 242 250 256 260 263 265 265 270 274 275 274 274 277 282 289 294 296 297 298 300 301 302 302 299 297 290 282 276 272 254 265 277 277 280 283 287 292 288
211 217 226 237 242 250 252 256 258 261 267 274 278 279 279 278 279 283 287 291 294 297 298 300 302 305 305 304 303 301 297 291 288 279 266 257 268 270 272 277 282 284 283
211 216 227 234 244 251 259 265 272 278 281 284 286 287 287 286 286 288 289 289 289 290 291 292 297 300 301 300 301 298 297 295 286 282 279 279 270 269 271 274 277 278 276
208 220 231 249 256 262 267 274 280 282 283 284 286 286 286 287 288 287 286 285 284 285 287 292 294 297 296 297 298 295 291 287 286 280 278 283 274 266 270 272 271 270 268
216 232 240 250 259 269 279 283 281 284 288 289 287 287 288 289 288 289 289 288 287 285 285 290 294 294 293 294 293 295 296 291 292 286 285 284 273 267 266 269 267 262 263
240 252 264 275 281 286 287 287 292 296 296 297 299 297 296 294 292 290 289 287 287 288 286 287 290 289 288 289 294 293 289 286 285 287 282 276 268 266 270 263 260 265 263
268 279 283 283 286 286 284 286 292 295 301 303 298 295 295 293 294 296 296 294 291 287 286 287 287 289 291 292 291 295 293 288 283 279 273 273 270 267 268 264 261 259 261
278 277 276 276 276 278 283 287 292 295 295 291 291 298 296 297 299 296 294 289 287 286 284 290 292 292 289 288 293 297 300 296 291 286 285 273 271 265 262 265 255 257 259
281 283 285 285 283 281 281 282 284 288 286 285 287 290 288 292 296 300 295 286 280 283 287 288 288 289 292 291 287 293 288 290 288 292 292 284 278 267 265 255 251 258 262
298 297 294 289 283 284 286 288 289 286 282 281 284 285 293 298 302 298 291 289 283 277 275 279 281 282 280 285 292 286 282 284 287 285 288 286 279 270 270 259 258 260 255
300 299 296 293 292 292 291 291 294 284 281 283 287 289 291 298 297 296 292 293 291 288 286 287 285 282 280 279 281 283 280 291 286 292 271 275 281 275 265 260 266 270 254
306 304 306 303 297 297 299 297 295 288 290 291 295 300 296 294 291 292 288 291 295 294 294 287 279 278 279 276 276 285 283 287 284 271 283 274 268 269 271 272 271 273 270
311 309 306 303 301 301 299 296 294 293 291 293 298 296 294 287 291 291 290 290 287 287 288 299 297 291 271 275 271 279 280 276 275 275 270 253 251 266 278 276 281 286 276